VIR147 EGLL-CYYZ

Flight info

Callsign VIR147
Flight time N/A
Altitude 36000
Route CPT DCT DIDZA DCT VH26S DCT MORAG DCT 54N012W/M083F360 DCT 5520N DCT 55N042W/N0472F360 DCT ITMUP/N0473F380 DCT GADOX DCT LETAK IMEBA9
Aircraft A346/H-SDE2E3FGHIJ3J4J5M1RWXY/LB1D1

Departure

Time 2026-05-06 21:41
Airport London Heathrow Airport (EGLL)

Arrival

Time N/A
Airport Toronto Pearson International Airport (CYYZ)
Time Latitude Longitude Altitude Speed Heading
2026-05-06 20:50 51.46833 -0.45445 94 ft 0 kts 360°
2026-05-06 21:26 51.46824 -0.45445 96 ft 4 kts 360°
2026-05-06 21:27 51.46798 -0.45445 97 ft 4 kts 360°
2026-05-06 21:27 51.46783 -0.45444 96 ft 4 kts 354°
2026-05-06 21:27 51.46758 -0.45429 96 ft 4 kts 310°
2026-05-06 21:27 51.46751 -0.45400 95 ft 4 kts 276°
2026-05-06 21:28 51.46750 -0.45372 95 ft 4 kts 269°
2026-05-06 21:28 51.46750 -0.45338 96 ft 1 kts 270°
2026-05-06 21:28 51.46750 -0.45332 96 ft 0 kts 270°
2026-05-06 21:31 51.46750 -0.45333 96 ft 2 kts 268°
2026-05-06 21:31 51.46750 -0.45347 96 ft 0 kts 264°
2026-05-06 21:32 51.46749 -0.45351 97 ft 1 kts 243°
2026-05-06 21:32 51.46679 -0.45424 98 ft 15 kts 232°
2026-05-06 21:32 51.46659 -0.45649 98 ft 23 kts 269°
2026-05-06 21:33 51.46659 -0.45911 97 ft 24 kts 270°
2026-05-06 21:33 51.46658 -0.46183 97 ft 25 kts 270°
2026-05-06 21:33 51.46658 -0.46469 98 ft 26 kts 270°
2026-05-06 21:33 51.46657 -0.46775 98 ft 27 kts 270°
2026-05-06 21:34 51.46656 -0.47082 97 ft 28 kts 270°
2026-05-06 21:34 51.46655 -0.47397 97 ft 28 kts 270°
2026-05-06 21:34 51.46653 -0.47705 94 ft 22 kts 269°
2026-05-06 21:34 51.46653 -0.47833 94 ft 10 kts 270°
2026-05-06 21:35 51.46653 -0.47956 94 ft 12 kts 270°
2026-05-06 21:35 51.46653 -0.48109 95 ft 14 kts 269°
2026-05-06 21:35 51.46651 -0.48280 95 ft 16 kts 269°
2026-05-06 21:35 51.46652 -0.48462 95 ft 17 kts 269°
2026-05-06 21:36 51.46651 -0.48582 94 ft 5 kts 270°
2026-05-06 21:36 51.46651 -0.48591 94 ft 0 kts 270°
2026-05-06 21:36 51.46651 -0.48615 94 ft 8 kts 270°
2026-05-06 21:36 51.46643 -0.48719 98 ft 10 kts 236°
2026-05-06 21:37 51.46617 -0.48750 97 ft 0 kts 201°
2026-05-06 21:38 51.46617 -0.48751 97 ft 0 kts 201°
2026-05-06 21:38 51.46570 -0.48778 96 ft 10 kts 198°
2026-05-06 21:38 51.46556 -0.48784 98 ft 1 kts 190°
2026-05-06 21:39 51.46488 -0.48728 98 ft 0 kts 104°
2026-05-06 21:39 51.46482 -0.48677 96 ft 9 kts 95°
2026-05-06 21:39 51.46481 -0.48658 94 ft 0 kts 91°
2026-05-06 21:40 51.46480 -0.48396 95 ft 55 kts 89°
2026-05-06 21:40 51.46484 -0.47427 97 ft 116 kts 89°
2026-05-06 21:40 51.46490 -0.45850 96 ft 164 kts 90°
2026-05-06 21:40 51.46467 -0.43902 555 ft 165 kts 90°
2026-05-06 21:41 51.46448 -0.41901 1131 ft 173 kts 99°
2026-05-06 21:41 51.45846 -0.40072 1628 ft 184 kts 138°
2026-05-06 21:41 51.44617 -0.39200 2132 ft 197 kts 176°
2026-05-06 21:41 51.43256 -0.39757 2511 ft 212 kts 216°
2026-05-06 21:42 51.42248 -0.41668 2904 ft 227 kts 238°
2026-05-06 21:42 51.41357 -0.43951 3307 ft 247 kts 239°
2026-05-06 21:42 51.40479 -0.46425 3755 ft 262 kts 252°
2026-05-06 21:42 51.40280 -0.49329 4447 ft 262 kts 279°
2026-05-06 21:43 51.40675 -0.52312 5344 ft 264 kts 285°
2026-05-06 21:43 51.41232 -0.55791 5918 ft 283 kts 284°
2026-05-06 21:43 51.41708 -0.59045 5993 ft 294 kts 283°
2026-05-06 21:43 51.42131 -0.62239 5895 ft 282 kts 283°
2026-05-06 21:44 51.42522 -0.65367 5888 ft 266 kts 282°
2026-05-06 21:44 51.42880 -0.68290 5619 ft 262 kts 282°
2026-05-06 21:44 51.43237 -0.71253 5232 ft 263 kts 282°
2026-05-06 21:44 51.43579 -0.74089 4919 ft 261 kts 282°
2026-05-06 21:45 51.43933 -0.77010 4604 ft 264 kts 282°
2026-05-06 21:45 51.44289 -0.79909 4772 ft 272 kts 282°
2026-05-06 21:45 51.44653 -0.82896 5506 ft 267 kts 282°
2026-05-06 21:45 51.45010 -0.85829 5900 ft 266 kts 282°
2026-05-06 21:46 51.45367 -0.88759 5979 ft 266 kts 282°
2026-05-06 21:46 51.45707 -0.91695 6000 ft 265 kts 282°
2026-05-06 21:46 51.46051 -0.94698 6031 ft 266 kts 281°
2026-05-06 21:46 51.46389 -0.97678 6047 ft 265 kts 281°
2026-05-06 21:47 51.46717 -1.00579 6046 ft 264 kts 282°
2026-05-06 21:47 51.47049 -1.03478 6048 ft 264 kts 282°
2026-05-06 21:47 51.47391 -1.06476 6040 ft 263 kts 282°
2026-05-06 21:47 51.47722 -1.09390 6048 ft 263 kts 281°
2026-05-06 21:48 51.48050 -1.12289 6043 ft 263 kts 281°
2026-05-06 21:48 51.48381 -1.15215 6045 ft 263 kts 281°
2026-05-06 21:48 51.48708 -1.18116 6052 ft 263 kts 281°
2026-05-06 21:48 51.49125 -1.20971 6024 ft 262 kts 294°
2026-05-06 21:49 51.50084 -1.23487 6111 ft 267 kts 314°
2026-05-06 21:49 51.51461 -1.25620 6793 ft 267 kts 318°
2026-05-06 21:49 51.52859 -1.27665 7693 ft 265 kts 318°
2026-05-06 21:49 51.54231 -1.29690 8381 ft 270 kts 317°
2026-05-06 21:50 51.55615 -1.31759 9058 ft 275 kts 317°
2026-05-06 21:50 51.57027 -1.33889 9749 ft 278 kts 317°
2026-05-06 21:50 51.58449 -1.36041 10409 ft 282 kts 317°
2026-05-06 21:50 51.59884 -1.38305 10790 ft 297 kts 313°
2026-05-06 21:51 51.61242 -1.40947 11083 ft 313 kts 306°
2026-05-06 21:51 51.62458 -1.43924 11379 ft 329 kts 302°
2026-05-06 21:51 51.63678 -1.47157 11666 ft 345 kts 301°
2026-05-06 21:51 51.64943 -1.50553 11958 ft 361 kts 301°
2026-05-06 21:52 51.66261 -1.54093 12328 ft 373 kts 301°
2026-05-06 21:52 51.67605 -1.57693 13004 ft 376 kts 301°
2026-05-06 21:52 51.68965 -1.61334 13735 ft 379 kts 301°
2026-05-06 21:52 51.70316 -1.64948 14355 ft 382 kts 301°
2026-05-06 21:53 51.71713 -1.68688 14957 ft 386 kts 301°
2026-05-06 21:53 51.73088 -1.72371 15533 ft 389 kts 301°
2026-05-06 21:53 51.74486 -1.76119 16143 ft 392 kts 301°
2026-05-06 21:53 51.75904 -1.79929 16740 ft 395 kts 301°
2026-05-06 21:54 51.77327 -1.83755 17332 ft 399 kts 301°
2026-05-06 21:54 51.78773 -1.87650 17940 ft 402 kts 301°
2026-05-06 21:54 51.80220 -1.91553 18489 ft 406 kts 300°
2026-05-06 21:54 51.81684 -1.95508 18995 ft 409 kts 300°
2026-05-06 21:55 51.83149 -1.99471 19510 ft 411 kts 300°
2026-05-06 21:55 51.84618 -2.03455 20039 ft 414 kts 300°
2026-05-06 21:55 51.86076 -2.07417 20514 ft 417 kts 300°
2026-05-06 21:55 51.87567 -2.11470 20999 ft 420 kts 300°
2026-05-06 21:56 51.89089 -2.15617 21500 ft 423 kts 300°
2026-05-06 21:56 51.90574 -2.19666 21972 ft 426 kts 300°
2026-05-06 21:56 51.92095 -2.23821 22441 ft 429 kts 300°
2026-05-06 21:56 51.93620 -2.27992 22941 ft 432 kts 300°
2026-05-06 21:57 51.95156 -2.32202 23412 ft 434 kts 300°
2026-05-06 21:57 51.96702 -2.36446 23827 ft 437 kts 300°
2026-05-06 21:57 51.98258 -2.40725 24200 ft 440 kts 300°
2026-05-06 21:57 51.99817 -2.45017 24599 ft 443 kts 300°
2026-05-06 21:58 52.01381 -2.49339 25003 ft 445 kts 300°
2026-05-06 21:58 52.02957 -2.53698 25400 ft 447 kts 300°
2026-05-06 21:58 52.04461 -2.58138 25761 ft 450 kts 297°
2026-05-06 21:58 52.05839 -2.62770 26127 ft 453 kts 294°
2026-05-06 21:59 52.07087 -2.67484 26503 ft 455 kts 293°
2026-05-06 21:59 52.08312 -2.72252 26863 ft 458 kts 293°
2026-05-06 21:59 52.09522 -2.77002 27195 ft 461 kts 293°
2026-05-06 21:59 52.10758 -2.81862 27543 ft 463 kts 293°
2026-05-06 22:00 52.11996 -2.86730 27886 ft 466 kts 293°
2026-05-06 22:00 52.13238 -2.91620 28262 ft 468 kts 293°
2026-05-06 22:00 52.14479 -2.96511 28757 ft 466 kts 294°
2026-05-06 22:00 52.15710 -3.01379 29277 ft 465 kts 294°
2026-05-06 22:01 52.16948 -3.06272 29767 ft 464 kts 294°
2026-05-06 22:01 52.18176 -3.11135 30227 ft 464 kts 294°
2026-05-06 22:01 52.19403 -3.16000 30618 ft 463 kts 294°
2026-05-06 22:01 52.20625 -3.20855 31024 ft 462 kts 294°
2026-05-06 22:02 52.21844 -3.25713 31418 ft 462 kts 294°
2026-05-06 22:02 52.23059 -3.30560 31818 ft 461 kts 294°
2026-05-06 22:02 52.24270 -3.35413 32198 ft 460 kts 294°
2026-05-06 22:02 52.25473 -3.40253 32565 ft 460 kts 294°
2026-05-06 22:03 52.26678 -3.45097 32929 ft 460 kts 294°
2026-05-06 22:03 52.27880 -3.49940 33286 ft 459 kts 294°
2026-05-06 22:03 52.29081 -3.54788 33599 ft 460 kts 295°
2026-05-06 22:03 52.30284 -3.59655 33924 ft 460 kts 295°
2026-05-06 22:04 52.31469 -3.64454 34221 ft 460 kts 294°
2026-05-06 22:04 52.32681 -3.69370 34486 ft 460 kts 294°
2026-05-06 22:04 52.33861 -3.74172 34712 ft 461 kts 294°
2026-05-06 22:04 52.35056 -3.79045 34922 ft 462 kts 294°
2026-05-06 22:05 52.36254 -3.83946 35140 ft 463 kts 294°
2026-05-06 22:05 52.37450 -3.88849 35355 ft 464 kts 294°
2026-05-06 22:05 52.38645 -3.93761 35566 ft 465 kts 293°
2026-05-06 22:05 52.39841 -3.98692 35761 ft 466 kts 293°
2026-05-06 22:06 52.41040 -4.03649 35928 ft 467 kts 293°
2026-05-06 22:06 52.42246 -4.08642 36019 ft 468 kts 293°
2026-05-06 22:06 52.44646 -4.18615 36017 ft 469 kts 293°
2026-05-06 22:07 52.47011 -4.28498 36019 ft 468 kts 293°
2026-05-06 22:07 52.49383 -4.38435 36016 ft 468 kts 293°
2026-05-06 22:08 52.51754 -4.48418 36016 ft 469 kts 293°
2026-05-06 22:08 52.53723 -4.56742 36011 ft 469 kts 293°
2026-05-06 22:09 52.56098 -4.66827 36019 ft 470 kts 293°
2026-05-06 22:09 52.58454 -4.76879 36011 ft 470 kts 293°
2026-05-06 22:10 52.60800 -4.86934 36015 ft 470 kts 293°
2026-05-06 22:10 52.63121 -4.96929 36018 ft 470 kts 292°
2026-05-06 22:11 52.65448 -5.06995 36010 ft 470 kts 292°
2026-05-06 22:11 52.67783 -5.17149 36016 ft 468 kts 292°
2026-05-06 22:12 52.70125 -5.27377 36014 ft 468 kts 292°
2026-05-06 22:12 52.72476 -5.37694 36017 ft 468 kts 292°
2026-05-06 22:13 52.74761 -5.47782 36014 ft 468 kts 292°
2026-05-06 22:13 52.77051 -5.57952 36013 ft 468 kts 292°
2026-05-06 22:14 52.79311 -5.68053 36011 ft 468 kts 292°
2026-05-06 22:14 52.81563 -5.78164 36004 ft 468 kts 292°
2026-05-06 22:15 52.83822 -5.88347 36011 ft 468 kts 292°
2026-05-06 22:15 52.86076 -5.98561 36015 ft 468 kts 292°
2026-05-06 22:16 52.88288 -6.08631 36007 ft 466 kts 291°
2026-05-06 22:16 52.90508 -6.18785 36009 ft 467 kts 291°
2026-05-06 22:17 52.92722 -6.28973 36011 ft 467 kts 291°
2026-05-06 22:17 52.94929 -6.39169 36012 ft 467 kts 291°
2026-05-06 22:18 52.97126 -6.49375 36007 ft 467 kts 291°
2026-05-06 22:18 52.99309 -6.59563 36002 ft 467 kts 291°
2026-05-06 22:19 53.01478 -6.69715 36003 ft 467 kts 291°
2026-05-06 22:19 53.03647 -6.79916 36003 ft 467 kts 291°
2026-05-06 22:20 53.05788 -6.90139 36004 ft 467 kts 290°
2026-05-06 22:20 53.07908 -7.00259 35997 ft 465 kts 290°
2026-05-06 22:21 53.10037 -7.10459 35997 ft 465 kts 290°
2026-05-06 22:21 53.12164 -7.20689 35994 ft 465 kts 290°
2026-05-06 22:22 53.14275 -7.30896 35997 ft 464 kts 290°
2026-05-06 22:22 53.16378 -7.41119 35994 ft 464 kts 290°
2026-05-06 22:23 53.18453 -7.51258 35995 ft 464 kts 290°
2026-05-06 22:23 53.20558 -7.61594 35993 ft 464 kts 290°
2026-05-06 22:24 53.22639 -7.71864 35986 ft 465 kts 290°
2026-05-06 22:24 53.24715 -7.82167 35987 ft 465 kts 290°
2026-05-06 22:25 53.26775 -7.92442 35991 ft 465 kts 290°
2026-05-06 22:25 53.28824 -8.02722 35990 ft 465 kts 290°
2026-05-06 22:26 53.30865 -8.13009 35989 ft 465 kts 289°